COSMOS 1275 DEB

Satellite information

Favourite Embed

Satellite Type and Status

DEBRISIN ORBIT

Key statistics

Satellite COSMOS 1275 DEB at a glance.

Uptime

16045

Days in orbit

Revolutions

≈ 13.5

Per day

Orbit

LEO

Low Earth Orbit

Inclination

83.1

Latest

Satellite identification and parameters

Extended collection of information and parameters for COSMOS 1275 DEB.

Object identification

Identified? True

Debris? True

Object name: COSMOS 1275 DEB

International designator: 1981-053GJ

Object number (NORAD): 13488

Object ID (CCSDS): 13488

Country: COMMONWEALTH OF INDEPENDENT STATES (CIS)

Current information (Y/N): Y

RCS size: SMALL

Orbital parameters

Period: 106.8 minutes

Inclination: 83.0885 deg

SMA: 7456.616 km

Apoapsis: 1222.353 km

Periapsis: 934.608 km

RAAN: 8.1209 deg

Eccentricy: 0.0192946

Argument of periapsis: 114.3209 deg

Mean anomaly: 265.5634 deg

Mean motion: 13.4831108 rev/day

Mean motion (dot): 0.00001126 rev/day2

B* drag term: 0.0015989 1/REarth

Two-line elements (TLE)

Creation date: May 8, 2025, 3:01 a.m.

Reference frame: TEME

Reference center: EARTH

Epoch: May 7, 2025, 9:31 p.m. UTC

TLE line 0: 0 COSMOS 1275 DEB

TLE line 1: 1 13488U 81053GJ 25127.89678446 .00001126 00000-0 15989-2 0 9994

TLE line 2: 2 13488 83.0885 8.1209 0192946 114.3209 265.5634 13.48311080 97702

Live tracking on map

Real-time ground track for satellite COSMOS 1275 DEB.

In-orbit conjunctions

A list of the most updated potential collisions computed for object COSMOS 1275 DEB.

Target Orbit TCA Probability of collision Miss distance Type
CZ-6A DEB SSO 2024-11-21 07:57:37 0.0001937568 85.0 (m) DEBRIS
CZ-4C DEB LEO 2024-11-09 21:29:38 0.0002430167 260.0 (m) DEBRIS

Associated space launch

Navigation satellite providing location information for the Tsiklon-B navigation system

COSMOS 1275 DEB was lifted into orbit during the mission ‘Kosmos-3M | Parus 27’, on board a Kosmos-3M space rocket.

The launch took place on June 4, 1981, 3:41 p.m. from 132/2.

For more information about the launch, click the button.

Launch to space Kosmos-3M | Parus 27
Kosmos-3M | Parus 27

Agency: N/A

Status: Launch Successful

Launch date: June 4, 1981, 3:41 p.m. UTC

Rocket: Kosmos-3M

Launch pad: 132/2

Location: Plesetsk Cosmodrome, Russian Federation

...

Latest news about this satellite

There are no fresh news available about this satellite. Check back as we update our databases every day.


Newsletter sign-up

Weekly statistics, charts and insights to help you stay on top of the space industry.